RLTS1 YMES-YMES

Flight info

Callsign RLTS1
Flight time 1h 7m
Altitude 6000
Route ESL DCT WSL DCT ESL
Aircraft PC21/L-SDFGRWY/S

Departure

Time 2026-04-24 12:04
Airport RAAF Base East Sale (YMES)

Arrival

Time 2026-04-24 13:12
Airport RAAF Base East Sale (YMES)
Time Latitude Longitude Altitude Speed Heading
2026-04-24 11:47 -38.09901 147.13594 26 ft 0 kts 188°
2026-04-24 11:52 -38.09902 147.13594 26 ft 2 kts 189°
2026-04-24 11:53 -38.09919 147.13576 26 ft 5 kts 287°
2026-04-24 11:53 -38.09883 147.13575 27 ft 7 kts
2026-04-24 11:53 -38.09866 147.13537 27 ft 8 kts 278°
2026-04-24 11:53 -38.09856 147.13446 26 ft 11 kts 278°
2026-04-24 11:54 -38.09843 147.13345 24 ft 10 kts 279°
2026-04-24 11:54 -38.09812 147.13323 23 ft 6 kts
2026-04-24 11:54 -38.09801 147.13325 23 ft 0 kts
2026-04-24 11:55 -38.09782 147.13328 23 ft 6 kts
2026-04-24 11:55 -38.09755 147.13300 24 ft 8 kts 278°
2026-04-24 11:55 -38.09743 147.13198 23 ft 14 kts 279°
2026-04-24 11:56 -38.09726 147.13058 21 ft 17 kts 279°
2026-04-24 11:56 -38.09707 147.12909 21 ft 16 kts 278°
2026-04-24 11:56 -38.09665 147.12828 22 ft 7 kts 356°
2026-04-24 11:56 -38.09654 147.12829 22 ft 0 kts
2026-04-24 11:57 -38.09616 147.12836 26 ft 10 kts
2026-04-24 11:57 -38.09578 147.12864 26 ft 9 kts 65°
2026-04-24 11:57 -38.09585 147.12970 23 ft 8 kts 99°
2026-04-24 11:58 -38.09589 147.13004 23 ft 0 kts 99°
2026-04-24 12:03 -38.09608 147.13159 23 ft 55 kts 99°
2026-04-24 12:04 -38.09709 147.13954 32 ft 121 kts 99°
2026-04-24 12:04 -38.09864 147.15171 260 ft 161 kts 99°
2026-04-24 12:04 -38.10042 147.16684 767 ft 183 kts 97°
2026-04-24 12:04 -38.10382 147.18271 1426 ft 193 kts 120°
2026-04-24 12:05 -38.11475 147.19307 2047 ft 208 kts 164°
2026-04-24 12:05 -38.12927 147.19051 2525 ft 222 kts 211°
2026-04-24 12:05 -38.13896 147.17535 3023 ft 228 kts 253°
2026-04-24 12:05 -38.14195 147.15519 3471 ft 239 kts 264°
2026-04-24 12:06 -38.14417 147.13398 3805 ft 249 kts 264°
2026-04-24 12:06 -38.14678 147.11218 4214 ft 250 kts 263°
2026-04-24 12:06 -38.14940 147.08990 4390 ft 260 kts 263°
2026-04-24 12:06 -38.15218 147.06678 4524 ft 269 kts 263°
2026-04-24 12:07 -38.15491 147.04290 4639 ft 276 kts 264°
2026-04-24 12:07 -38.15717 147.01846 4717 ft 282 kts 265°
2026-04-24 12:07 -38.15912 146.99335 4706 ft 289 kts 266°
2026-04-24 12:07 -38.16073 146.96769 4704 ft 291 kts 268°
2026-04-24 12:08 -38.16202 146.94206 4718 ft 291 kts 268°
2026-04-24 12:08 -38.15928 146.91703 4822 ft 288 kts 301°
2026-04-24 12:08 -38.14307 146.90399 4677 ft 291 kts 358°
2026-04-24 12:08 -38.12732 146.91843 3780 ft 318 kts 71°
2026-04-24 12:09 -38.12800 146.94744 2815 ft 329 kts 91°
2026-04-24 12:09 -38.11659 146.96548 3583 ft 284 kts 356°
2026-04-24 12:09 -38.10610 146.94674 2380 ft 320 kts 256°
2026-04-24 12:09 -38.12456 146.93346 1158 ft 341 kts 172°
2026-04-24 12:10 -38.14583 146.93601 2376 ft 279 kts 203°
2026-04-24 12:10 -38.15163 146.91619 2739 ft 270 kts 301°
2026-04-24 12:10 -38.13469 146.91011 2006 ft 290 kts 27°
2026-04-24 12:11 -38.12481 146.95793 2291 ft 138 kts 89°
2026-04-24 12:11 -38.12555 146.95211 4068 ft 89 kts 266°
2026-04-24 12:11 -38.12693 146.96967 584 ft 322 kts 108°
2026-04-24 12:11 -38.14384 146.98011 1048 ft 295 kts 191°
2026-04-24 12:12 -38.16085 146.98612 1694 ft 269 kts 111°
2026-04-24 12:12 -38.15254 147.00360 1370 ft 278 kts
2026-04-24 12:12 -38.13729 146.98867 564 ft 306 kts 302°
2026-04-24 12:12 -38.12934 146.97240 3099 ft 27 kts 116°
2026-04-24 12:13 -38.13205 146.97849 2191 ft 96 kts 308°
2026-04-24 12:13 -38.12450 146.95654 638 ft 299 kts 262°
2026-04-24 12:13 -38.13830 146.94035 1315 ft 266 kts 206°
2026-04-24 12:13 -38.14535 146.92262 2147 ft 245 kts 297°
2026-04-24 12:14 -38.13057 146.91872 1669 ft 268 kts 39°
2026-04-24 12:14 -38.12462 146.94191 768 ft 302 kts 84°
2026-04-24 12:14 -38.12382 146.96308 3139 ft 173 kts 112°
2026-04-24 12:14 -38.12796 146.97973 1293 ft 279 kts 82°
2026-04-24 12:15 -38.11995 147.00372 1050 ft 296 kts 26°
2026-04-24 12:15 -38.10451 146.99363 1104 ft 293 kts 281°
2026-04-24 12:15 -38.11051 146.96886 676 ft 304 kts 243°
2026-04-24 12:15 -38.11900 146.94743 2162 ft 113 kts 247°
2026-04-24 12:16 -38.11725 146.95239 2898 ft 3 kts 259°
2026-04-24 12:16 -38.12457 146.93260 488 ft 308 kts 245°
2026-04-24 12:16 -38.13175 146.90912 1374 ft 267 kts 269°
2026-04-24 12:16 -38.12046 146.89611 1896 ft 252 kts 14°
2026-04-24 12:17 -38.11221 146.91500 1172 ft 289 kts 95°
2026-04-24 12:17 -38.11555 146.94069 1157 ft 251 kts 99°
2026-04-24 12:17 -38.11623 146.94017 4107 ft 122 kts 275°
2026-04-24 12:17 -38.11872 146.95221 496 ft 314 kts 101°
2026-04-24 12:18 -38.12489 146.97718 1117 ft 284 kts 135°
2026-04-24 12:18 -38.14053 146.97163 1243 ft 284 kts 253°
2026-04-24 12:18 -38.13981 146.94647 1115 ft 284 kts 276°
2026-04-24 12:18 -38.13802 146.92169 1129 ft 280 kts 276°
2026-04-24 12:19 -38.13593 146.89734 1165 ft 280 kts 277°
2026-04-24 12:19 -38.13367 146.87312 1421 ft 273 kts 279°
2026-04-24 12:19 -38.12739 146.85123 1824 ft 265 kts 321°
2026-04-24 12:19 -38.11048 146.85104 1930 ft 269 kts 40°
2026-04-24 12:20 -38.10687 146.87386 1685 ft 289 kts 101°
2026-04-24 12:20 -38.11534 146.89706 1457 ft 297 kts 133°
2026-04-24 12:20 -38.13365 146.90880 1432 ft 296 kts 162°
2026-04-24 12:20 -38.15097 146.92095 1882 ft 283 kts 137°
2026-04-24 12:21 -38.16276 146.94095 1889 ft 283 kts 106°
2026-04-24 12:21 -38.15728 146.96276 1510 ft 289 kts 32°
2026-04-24 12:21 -38.13702 146.96453 894 ft 305 kts 351°
2026-04-24 12:21 -38.11600 146.96438 733 ft 302 kts
2026-04-24 12:22 -38.09528 146.96832 580 ft 300 kts
2026-04-24 12:22 -38.07669 146.97217 1966 ft 117 kts 11°
2026-04-24 12:22 -38.08169 146.97159 3237 ft 57 kts 179°
2026-04-24 12:22 -38.06739 146.97663 624 ft 297 kts 36°
2026-04-24 12:23 -38.06787 146.99765 795 ft 286 kts 153°
2026-04-24 12:23 -38.08571 146.99121 680 ft 289 kts 230°
2026-04-24 12:23 -38.09014 146.96725 637 ft 288 kts 285°
2026-04-24 12:23 -38.07762 146.94877 1011 ft 271 kts 324°
2026-04-24 12:24 -38.06314 146.93576 2090 ft 241 kts 331°
2026-04-24 12:24 -38.04747 146.93591 2499 ft 247 kts 38°
2026-04-24 12:24 -38.04300 146.95717 2141 ft 283 kts 108°
2026-04-24 12:24 -38.05788 146.97322 1594 ft 306 kts 168°
2026-04-24 12:25 -38.07988 146.97119 699 ft 326 kts 189°
2026-04-24 12:25 -38.10149 146.96612 777 ft 306 kts 197°
2026-04-24 12:25 -38.11410 146.94775 1495 ft 278 kts 251°
2026-04-24 12:25 -38.12207 146.92623 2148 ft 269 kts 223°
2026-04-24 12:26 -38.13969 146.92455 2124 ft 281 kts 143°
2026-04-24 12:26 -38.14401 146.94730 1427 ft 296 kts 63°
2026-04-24 12:26 -38.12677 146.96071 797 ft 308 kts 11°
2026-04-24 12:26 -38.10576 146.96531 602 ft 305 kts 10°
2026-04-24 12:27 -38.08495 146.96993 507 ft 301 kts 10°
2026-04-24 12:27 -38.07646 146.97181 4019 ft 97 kts 189°
2026-04-24 12:27 -38.07829 146.97203 1165 ft 248 kts 12°
2026-04-24 12:27 -38.05988 146.96578 664 ft 297 kts 294°
2026-04-24 12:28 -38.06848 146.94624 589 ft 292 kts 187°
2026-04-24 12:28 -38.08439 146.95899 647 ft 286 kts 114°
2026-04-24 12:28 -38.08119 146.98182 753 ft 279 kts 49°
2026-04-24 12:28 -38.07273 147.00105 1775 ft 251 kts 102°
2026-04-24 12:29 -38.08751 147.00835 1233 ft 289 kts 215°
2026-04-24 12:29 -38.09203 146.98424 537 ft 307 kts 280°
2026-04-24 12:29 -38.08851 146.95870 1218 ft 175 kts 282°
2026-04-24 12:29 -38.08947 146.96446 2646 ft 45 kts 79°
2026-04-24 12:30 -38.08422 146.94579 623 ft 285 kts 327°
2026-04-24 12:30 -38.06898 146.95411 942 ft 275 kts 70°
2026-04-24 12:30 -38.06523 146.97777 962 ft 277 kts 79°
2026-04-24 12:30 -38.06199 147.00196 1000 ft 277 kts 86°
2026-04-24 12:31 -38.07227 147.01991 1116 ft 283 kts 171°
2026-04-24 12:31 -38.08934 147.00977 949 ft 289 kts 239°
2026-04-24 12:31 -38.09117 146.98478 674 ft 294 kts 280°
2026-04-24 12:31 -38.08814 146.95977 741 ft 281 kts 279°
2026-04-24 12:32 -38.08509 146.93549 816 ft 274 kts 280°
2026-04-24 12:32 -38.08185 146.91198 1242 ft 267 kts 280°
2026-04-24 12:32 -38.07876 146.88960 1923 ft 253 kts 287°
2026-04-24 12:32 -38.06651 146.87652 2175 ft 254 kts
2026-04-24 12:33 -38.05636 146.89358 1328 ft 295 kts 96°
2026-04-24 12:33 -38.06529 146.91768 822 ft 308 kts 120°
2026-04-24 12:33 -38.07533 146.93890 2060 ft 124 kts 122°
2026-04-24 12:33 -38.07387 146.93288 3328 ft 58 kts 288°
2026-04-24 12:34 -38.08192 146.95018 441 ft 315 kts 114°
2026-04-24 12:34 -38.08101 146.97576 790 ft 292 kts 57°
2026-04-24 12:34 -38.06771 146.99404 1274 ft 273 kts 61°
2026-04-24 12:34 -38.07295 147.01426 1665 ft 274 kts 153°
2026-04-24 12:35 -38.09036 147.00790 1095 ft 298 kts 240°
2026-04-24 12:35 -38.09132 146.98152 440 ft 311 kts 279°
2026-04-24 12:35 -38.08781 146.95518 477 ft 301 kts 279°
2026-04-24 12:35 -38.08442 146.92978 983 ft 275 kts 279°
2026-04-24 12:36 -38.07767 146.90969 1993 ft 244 kts 337°
2026-04-24 12:36 -38.06603 146.92109 1455 ft 277 kts 90°
2026-04-24 12:36 -38.07238 146.94570 630 ft 306 kts 111°
2026-04-24 12:36 -38.07944 146.96571 2930 ft 166 kts 134°
2026-04-24 12:37 -38.08935 146.97705 1637 ft 255 kts 113°
2026-04-24 12:37 -38.09571 147.00291 817 ft 305 kts 83°
2026-04-24 12:37 -38.08229 147.01856 1491 ft 275 kts
2026-04-24 12:37 -38.06333 147.02010 1928 ft 267 kts
2026-04-24 12:38 -38.04614 147.01533 2250 ft 271 kts 314°
2026-04-24 12:38 -38.04683 146.99213 1369 ft 308 kts 231°
2026-04-24 12:38 -38.06609 146.97930 609 ft 322 kts 194°
2026-04-24 12:39 -38.09503 146.97066 1159 ft 288 kts 191°
2026-04-24 12:39 -38.11433 146.96724 1512 ft 270 kts 176°
2026-04-24 12:39 -38.13135 146.97439 1836 ft 255 kts 148°
2026-04-24 12:40 -38.14710 146.98386 1915 ft 255 kts 169°
2026-04-24 12:40 -38.16367 146.97841 1940 ft 256 kts 224°
2026-04-24 12:40 -38.16837 146.95782 1867 ft 254 kts 288°
2026-04-24 12:40 -38.15664 146.94246 1876 ft 247 kts 343°
2026-04-24 12:41 -38.14020 146.94442 2033 ft 241 kts 28°
2026-04-24 12:41 -38.12950 146.96026 2104 ft 244 kts 68°
2026-04-24 12:41 -38.11746 146.97193 2213 ft 236 kts 352°
2026-04-24 12:41 -38.10733 146.95715 2146 ft 248 kts 271°
2026-04-24 12:42 -38.11715 146.94047 2163 ft 254 kts 200°
2026-04-24 12:42 -38.13479 146.93575 2048 ft 261 kts 189°
2026-04-24 12:42 -38.14812 146.94502 2168 ft 245 kts 101°
2026-04-24 12:42 -38.14492 146.96649 1749 ft 258 kts 60°
2026-04-24 12:43 -38.13277 146.98337 1461 ft 265 kts 33°
2026-04-24 12:43 -38.11534 146.98752 1405 ft 262 kts 341°
2026-04-24 12:43 -38.10577 146.96974 1344 ft 264 kts 265°
2026-04-24 12:43 -38.11790 146.95482 1227 ft 266 kts 181°
2026-04-24 12:44 -38.13178 146.96774 1101 ft 262 kts 107°
2026-04-24 12:44 -38.12908 146.98926 1193 ft 251 kts 50°
2026-04-24 12:44 -38.11466 146.99656 1143 ft 222 kts 349°
2026-04-24 12:44 -38.10718 146.98250 1073 ft 210 kts 275°
2026-04-24 12:45 -38.11376 146.96823 1230 ft 198 kts 232°
2026-04-24 12:45 -38.11586 146.95178 1270 ft 207 kts 299°
2026-04-24 12:45 -38.10355 146.94876 1157 ft 219 kts 48°
2026-04-24 12:45 -38.10126 146.96838 803 ft 237 kts 93°
2026-04-24 12:46 -38.10938 146.98073 1167 ft 220 kts 217°
2026-04-24 12:46 -38.10902 146.96297 791 ft 227 kts 289°
2026-04-24 12:46 -38.10468 146.95051 2705 ft 49 kts 40°
2026-04-24 12:46 -38.10237 146.95730 1867 ft 154 kts 84°
2026-04-24 12:47 -38.10183 146.97552 973 ft 217 kts 88°
2026-04-24 12:47 -38.10899 146.99075 948 ft 229 kts 170°
2026-04-24 12:47 -38.12013 146.97922 1119 ft 229 kts 259°
2026-04-24 12:47 -38.11907 146.95891 1277 ft 233 kts 283°
2026-04-24 12:48 -38.11481 146.93897 1536 ft 233 kts 288°
2026-04-24 12:48 -38.11952 146.92083 1604 ft 245 kts 210°
2026-04-24 12:48 -38.13503 146.92416 1767 ft 235 kts 133°
2026-04-24 12:48 -38.14383 146.94127 1997 ft 238 kts 114°
2026-04-24 12:49 -38.14633 146.96159 2038 ft 240 kts 72°
2026-04-24 12:49 -38.13536 146.97706 1792 ft 247 kts 21°
2026-04-24 12:49 -38.12403 146.97810 1519 ft 257 kts 345°
2026-04-24 12:49 -38.11183 146.96228 1243 ft 266 kts 283°
2026-04-24 12:50 -38.11145 146.94396 3540 ft 169 kts 321°
2026-04-24 12:50 -38.10172 146.95593 1627 ft 244 kts 83°
2026-04-24 12:50 -38.10138 146.97066 894 ft 254 kts 91°
2026-04-24 12:50 -38.10283 146.99258 891 ft 242 kts 99°
2026-04-24 12:51 -38.11559 146.99564 1734 ft 247 kts 269°
2026-04-24 12:51 -38.10847 146.97375 1073 ft 280 kts 298°
2026-04-24 12:51 -38.10591 146.96139 2800 ft 146 kts 285°
2026-04-24 12:51 -38.09914 146.96271 2449 ft 180 kts 93°
2026-04-24 12:52 -38.10410 146.98479 1321 ft 272 kts 141°
2026-04-24 12:52 -38.11629 146.97593 1255 ft 252 kts 278°
2026-04-24 12:52 -38.11207 146.94697 1403 ft 246 kts 271°
2026-04-24 12:52 -38.11733 146.93507 1480 ft 246 kts 206°
2026-04-24 12:53 -38.13093 146.94260 1444 ft 242 kts 102°
2026-04-24 12:53 -38.12362 146.95992 1501 ft 238 kts 38°
2026-04-24 12:53 -38.11056 146.97320 1539 ft 240 kts 39°
2026-04-24 12:53 -38.10547 146.99143 1692 ft 242 kts 116°
2026-04-24 12:54 -38.12028 146.99858 1613 ft 251 kts 196°
2026-04-24 12:54 -38.13182 146.98327 1585 ft 251 kts 258°
2026-04-24 12:54 -38.13277 146.96114 1617 ft 250 kts 272°
2026-04-24 12:54 -38.12965 146.94000 1670 ft 246 kts 305°
2026-04-24 12:55 -38.11506 146.93662 1659 ft 243 kts 41°
2026-04-24 12:55 -38.11260 146.95712 1338 ft 259 kts 100°
2026-04-24 12:55 -38.11700 146.97956 1287 ft 260 kts 109°
2026-04-24 12:55 -38.12834 146.99610 1539 ft 252 kts 155°
2026-04-24 12:56 -38.14565 146.99704 1604 ft 253 kts 194°
2026-04-24 12:56 -38.16207 146.99009 1940 ft 247 kts 204°
2026-04-24 12:56 -38.17296 146.97450 2177 ft 243 kts 262°
2026-04-24 12:56 -38.16781 146.95505 2210 ft 241 kts 320°
2026-04-24 12:57 -38.15212 146.95145 2207 ft 240 kts 22°
2026-04-24 12:57 -38.14133 146.96723 2214 ft 245 kts 63°
2026-04-24 12:57 -38.13410 146.98594 2585 ft 232 kts 43°
2026-04-24 12:57 -38.12552 146.97610 1767 ft 291 kts 232°
2026-04-24 12:58 -38.14323 146.98187 1251 ft 320 kts 117°
2026-04-24 12:58 -38.13570 147.00347 1287 ft 318 kts
2026-04-24 12:58 -38.12715 146.98387 1011 ft 303 kts 240°
2026-04-24 12:58 -38.14393 146.97237 1707 ft 249 kts 189°
2026-04-24 12:59 -38.15315 146.95779 2795 ft 254 kts 282°
2026-04-24 12:59 -38.13716 146.95084 1497 ft 296 kts 15°
2026-04-24 12:59 -38.11658 146.95671 863 ft 306 kts 11°
2026-04-24 12:59 -38.09658 146.96246 934 ft 248 kts 77°
2026-04-24 13:00 -38.09658 146.97948 2237 ft 150 kts 86°
2026-04-24 13:00 -38.09453 146.99019 2529 ft 124 kts 65°
2026-04-24 13:00 -38.10168 146.99204 1861 ft 218 kts 234°
2026-04-24 13:00 -38.10485 146.97253 1580 ft 223 kts 277°
2026-04-24 13:01 -38.10559 146.95300 1630 ft 243 kts 237°
2026-04-24 13:01 -38.12119 146.94613 1636 ft 259 kts 163°
2026-04-24 13:01 -38.13347 146.96169 1626 ft 257 kts 108°
2026-04-24 13:01 -38.14079 146.98098 1780 ft 248 kts 158°
2026-04-24 13:02 -38.15226 146.97019 1785 ft 242 kts 274°
2026-04-24 13:02 -38.14284 146.95340 1450 ft 251 kts 334°
2026-04-24 13:02 -38.12561 146.95057 1315 ft 253 kts
2026-04-24 13:02 -38.10850 146.95491 1340 ft 249 kts 23°
2026-04-24 13:03 -38.09756 146.97018 1382 ft 246 kts 80°
2026-04-24 13:03 -38.10513 146.98819 1378 ft 251 kts 155°
2026-04-24 13:03 -38.12109 146.98373 1389 ft 250 kts 231°
2026-04-24 13:03 -38.12214 146.96368 1639 ft 232 kts 301°
2026-04-24 13:04 -38.10940 146.95245 1402 ft 233 kts 352°
2026-04-24 13:04 -38.09505 146.95912 1442 ft 230 kts 57°
2026-04-24 13:04 -38.09692 146.97793 1499 ft 239 kts 139°
2026-04-24 13:04 -38.11237 146.97847 1634 ft 238 kts 218°
2026-04-24 13:05 -38.11860 146.95990 1674 ft 238 kts 271°
2026-04-24 13:05 -38.11794 146.93880 1765 ft 248 kts 275°
2026-04-24 13:05 -38.12211 146.91824 2105 ft 256 kts 220°
2026-04-24 13:05 -38.13888 146.91903 2036 ft 270 kts 131°
2026-04-24 13:06 -38.13868 146.94037 2115 ft 266 kts 46°
2026-04-24 13:06 -38.12222 146.95158 2091 ft 274 kts 21°
2026-04-24 13:06 -38.10435 146.96037 2210 ft 275 kts 21°
2026-04-24 13:06 -38.08690 146.97061 2301 ft 278 kts 29°
2026-04-24 13:07 -38.07205 146.98629 2296 ft 280 kts 49°
2026-04-24 13:07 -38.06249 147.00779 2217 ft 283 kts 69°
2026-04-24 13:07 -38.05871 147.03202 2140 ft 285 kts 85°
2026-04-24 13:07 -38.05763 147.05694 2255 ft 281 kts 78°
2026-04-24 13:08 -38.04792 147.07748 2479 ft 276 kts 35°
2026-04-24 13:08 -38.02949 147.08062 2255 ft 284 kts 337°
2026-04-24 13:08 -38.01779 147.06145 2087 ft 291 kts 278°
2026-04-24 13:09 -38.04560 147.03395 1489 ft 304 kts 167°
2026-04-24 13:09 -38.06430 147.04569 1318 ft 301 kts 144°
2026-04-24 13:09 -38.08008 147.06258 1110 ft 299 kts 130°
2026-04-24 13:09 -38.09012 147.08544 754 ft 301 kts 106°
2026-04-24 13:10 -38.09354 147.11169 296 ft 302 kts 98°
2026-04-24 13:10 -38.09680 147.13768 283 ft 285 kts 97°
2026-04-24 13:10 -38.08784 147.14251 1040 ft 167 kts 293°
2026-04-24 13:10 -38.08603 147.12949 1135 ft 137 kts 281°
2026-04-24 13:11 -38.08494 147.11811 1067 ft 124 kts 267°
2026-04-24 13:11 -38.09027 147.11150 699 ft 113 kts 169°
2026-04-24 13:11 -38.09437 147.11906 259 ft 113 kts 101°
2026-04-24 13:11 -38.09567 147.12850 61 ft 104 kts 99°
2026-04-24 13:12 -38.09668 147.13650 27 ft 78 kts 98°
2026-04-24 13:12 -38.09735 147.14187 27 ft 46 kts 98°
2026-04-24 13:12 -38.09779 147.14532 21 ft 31 kts 99°
2026-04-24 13:12 -38.09819 147.14716 18 ft 13 kts 149°
2026-04-24 13:13 -38.09882 147.14668 18 ft 12 kts 234°
2026-04-24 13:13 -38.09913 147.14584 21 ft 10 kts 272°
2026-04-24 13:13 -38.09904 147.14498 21 ft 11 kts 279°
2026-04-24 13:13 -38.09890 147.14384 24 ft 16 kts 279°
2026-04-24 13:14 -38.09871 147.14230 24 ft 18 kts 279°
2026-04-24 13:14 -38.09853 147.14081 28 ft 12 kts 278°
2026-04-24 13:14 -38.09890 147.14036 28 ft 11 kts 189°
2026-04-24 13:14 -38.09920 147.13976 28 ft 12 kts 278°
2026-04-24 13:15 -38.09903 147.13842 27 ft 17 kts 279°
2026-04-24 13:15 -38.09886 147.13704 26 ft 13 kts 278°
2026-04-24 13:15 -38.09875 147.13610 26 ft 6 kts 273°
2026-04-24 13:15 -38.09898 147.13595 26 ft 3 kts 189°
2026-04-24 13:16 -38.09901 147.13594 26 ft 0 kts 189°